Regional Weather Roundup
Issued by NWS

Home | Current Version | Previous Version | Graphics & Text | Print | Product List | Glossary On
Versions: 1 2 3 4 5 6 7 8 9 10 11 12 13 14 15 16 17 18 19 20 21 22 23 24 25 26 27 28 29 30 31 32 33 34 35 36 37 38 39 40 41 42 43 44 45 46 47 48 49 50
209
ASUS43 KMKX 290200
RWRWI

WISCONSIN REGIONAL WEATHER ROUNDUP
NATIONAL WEATHER SERVICE MILWAUKEE/SULLIVAN WI
900 PM CDT SAT MAY 28 2016

NOTE: "FAIR" INDICATES FEW OR NO CLOUDS BELOW 12,000 FEET WITH NO
SIGNIFICANT WEATHER AND/OR OBSTRUCTIONS TO VISIBILITY.

WIZ001-002-006>008-014>016-023>028-290300-
NORTHWEST WISCONSIN

CITY           SKY/WX    TMP DP  RH WIND       PRES   REMARKS
SUPERIOR ARPT  DRIZZLE   50  50 100 N5        29.80F
ASHLAND        CLOUDY    56  55  97 CALM      29.80F FOG
HAYWARD        LGT RAIN  62  60  93 N5        29.79S
SIREN          CLOUDY    62  60  94 CALM      29.80R
CUMBERLAND     CLOUDY    61  59  94 CALM      29.79S
RICE LAKE      CLOUDY    62  58  88 CALM      29.79S
CHETEK         LGT RAIN  62  61  97 SE5       29.78S
LADYSMITH      LGT RAIN  63  60  89 CALM      29.83R
EAU CLAIRE     NOT AVBL
MENOMONIE      LGT RAIN  64  64  99 CALM      29.80R
NEW RICHMOND   CLOUDY    64  62  95 NW6       29.80R
OSCEOLA        CLOUDY    64  64 100 CALM      29.82S
$$

WIZ003>005-009-010-017-018-290300-
NORTH CENTRAL WISCONSIN

CITY           SKY/WX    TMP DP  RH WIND       PRES   REMARKS
MANITOWISH WTR NOT AVBL
ARBOR VITAE    MOCLDY    66  64  93 CALM      29.82S
WOODRUFF       MOCLDY    66  64  93 CALM      29.82S
RHINELANDER    CLOUDY    67  62  84 CALM      29.82S
EAGLE RIVER      N/A     65  63  92 CALM      29.82F
LAND O LAKES   PTCLDY    65  63  95 CALM      29.84S FOG
PHILLIPS       CLOUDY    66  65  97 CALM      29.79S
TOMAHAWK       MOCLDY    66  63  89 CALM      29.81S
MEDFORD        CLOUDY    69  63  82 S7        29.79S
MERRILL        NOT AVBL
$$

WIZ029-030-035-036-043>047-290300-
CENTRAL WISCONSIN

CITY           SKY/WX    TMP DP  RH WIND       PRES   REMARKS
WAUSAU         CLOUDY    71  63  75 S9        29.79R
MOSINEE        MOCLDY    66  64  94 S5        29.82R
MARSHFIELD     MOCLDY    68  59  73 SW9       29.80R
STEVENS POINT  CLOUDY    66  63  89 S8        29.82R
WAUPACA        LGT RAIN  68  64  87 S14       29.84R
WAUTOMA        CLOUDY    66  63  90 SE6       29.84S
WISC RAPIDS    CLOUDY    67  63  87 S6        29.82R
CAMP DOUGLAS   CLOUDY    67  67 100 S10       29.80S
$$

WIZ011>013-019>022-031-037>040-048>050-290300-
NORTHEAST WISCONSIN

CITY           SKY/WX    TMP DP  RH WIND       PRES   REMARKS
ANTIGO         CLOUDY    67  62  83 CALM      29.82F
SHAWANO        CLOUDY    76  64  65 S5        29.81R THUNDER
OCONTO         PTCLDY    70  67  92 S7        29.82S
STURGEON BAY   NOT AVBL
GREEN BAY      MOCLDY    67  61  81 SW17G29   29.86R
MANITOWOC      NOT AVBL
APPLETON       MOCLDY    64  59  82 SW13      29.84S
CLINTONVILLE   CLOUDY    72  63  73 SE5       29.80S
OSHKOSH        LGT RAIN  63  59  87 S10       29.85F
$$

WIZ032>034-041-042-053>061-290300-
SOUTHWEST WISCONSIN

CITY           SKY/WX    TMP DP  RH WIND       PRES   REMARKS
LA CROSSE      LGT RAIN  65  62  90 N7        29.79R
SPARTA         CLOUDY    67  63  89 S3        29.81R
VIROQUA        CLOUDY    66  62  87 S10       29.82S
BOSCOBEL       CLOUDY    69  65  86 S3        29.83R
PRAIRIE DU CHI CLOUDY    69  60  73 S6        29.83R
PLATTEVILLE    CLOUDY    69  67  95 S3        29.86R
$$

WIZ056-057-062-063-064-067-068-290300-
SOUTH CENTRAL WISCONSIN

CITY           SKY/WX    TMP DP  RH WIND       PRES   REMARKS
REEDSBURG      CLOUDY    66  64  93 S7        29.83S
BARABOO/DELLS  CLOUDY    67  61  81 SW8       29.84R
LONE ROCK      NOT AVBL
MINERAL POINT  CLOUDY    68  66  94 S3        29.87R
MADISON        CLOUDY    66  64  93 CALM      29.84S
MIDDLETON      CLOUDY    68  64  86 SW6       29.85S
WATERTOWN      LGT RAIN  66  64  95 SW8       29.84F
MONROE         CLOUDY    68  63  83 S8G16     29.86S
JANESVILLE     CLOUDY    66  64  94 S6        29.85F
$$

WIZ051-052-058>065-066-070>072-290300-
SOUTHEAST WISCONSIN

CITY           SKY/WX    TMP DP  RH WIND       PRES   REMARKS
MILWAUKEE      MOCLDY    75  63  66 SW21G26   29.90R THUNDER
WAUKESHA       TSTM      63  57  82 SE10      29.91R
MILWAUKEE/TIMM PTCLDY    75  61  60 MISG      29.86S
RACINE         CLEAR     69  59  70 S10       29.89R
BURLINGTON     HVY RAIN  67  58  73 SW9G22    29.90R
KENOSHA        CLEAR     77  64  64 S10       29.88R
FOND DU LAC    LGT RAIN  63  61  93 S5        29.86F
SHEBOYGAN      MOCLDY    69  59  70 W22G30    29.91R
WEST BEND      RAIN      72  61  68 SW24G32   29.89R
JUNEAU         RAIN      63  60  91 SE7       29.88F
$$

LSZ147-162-290300-
LAKE SUPERIOR

STATION/POSITION TIME  TEMP    WIND        PRES    WAVE
                       AIR SEA DIR/SP/G            HT/PER
                 (UTC) (F)     (DEG/KT/KT) (MB)    (FT/S)
W MID LAKE BUOY  0050   40 38  300/  4/  4 1010.1R   1/ 3
DEVILS ISLAND    0100   45        CALM     1010.4R
PORT WING        0140   44     330/  2/  4 1009.8F
SAXON HARBOR     0120   55     130/  1/  9 1008.8F
$$

LMZ867-665-643>646-290300-
LAKE MICHIGAN

STATION/POSITION TIME  TEMP    WIND        PRES    WAVE
                       AIR SEA DIR/SP/G            HT/PER
                 (UTC) (F)     (DEG/KT/KT) (MB)    (FT/S)
CHAMBERS ISLAND  0100   68     150/  5/ 15 1010.2S
N MID LAKE BUOY  0050   54 47  190/ 14/ 16 1011.4R   4/ 6
NORTHPORT PIER   0100   62     160/ 11/ 18 1010.8S
SISTER BAY       0105   66     170/ 17/ 22   N/A
ALGOMA LAKESHORE 0132          210/  9/ 11   N/A
KEWAUNEE LAKESHO 0100   53                 1010.5
SHEBOYGAN LAKESH 0100   59     180/ 18/ 18 1011.5S
PORT WASHINGTON  0100   58     200/  6/ 10 1012.2S
S MID LAKE BUOY  0050   59 50  150/ 12/ 14 1012.2S   1
KENOSHA   LAKESH 0100   58     170/ 10/ 12 1011.5S
$$

TC  - TEMPERATURE IN CELSIUS
VSB - VISIBILITY IN STATUTE MILES
WCI - WIND CHILL INDEX
HX  - HEAT INDEX





USA.gov is the U.S. government's official web portal to all federal, state and local government web resources and services.